Marianne — VRFM5 — position and weather

sailwx.info

Track history (hours):
 
Tides and Currents Weather Stations Pressure Air Temp Water Temp Dewpoint Dewpoint Depression Visibility Wind Speed Wind Dir Waves Ship Positions

Marianne

Last reported at 2014-Oct-19 23:33 UTC. Time now 2014-Oct-20 09:49 UTC.
Position N 55°45' W 006°57'.

Length 97 m; draft 5.5 m.

Type: Ship (hazmat cat B). MMSI: 477560836.

Date/timePositionNaut miles runAvg speedWind from/ knotsBaromVisibWave heightAir tempDewpointWater temp
2014-Oct-19 23:33N 55°45' W 006°57'1212.4
2014-Oct-19 22:33N 55°36' W 006°44'1313.2
2014-Oct-19 21:33N 55°28' W 006°24'1212.2
2014-Oct-19 20:33N 55°25' W 006°04'1111.3
2014-Oct-19 19:33N 55°16' W 005°51'1311.8
2014-Oct-19 18:29N 55°04' W 005°42'1212.4
2014-Oct-19 17:32N 54°53' W 005°36'1212.3
2014-Oct-19 16:33N 54°42' W 005°44'7 6.6
2014-Oct-19 15:26N 54°37' W 005°53'0 0.0
2014-Oct-18 21:18N 54°37' W 005°53'6 8.1
2014-Oct-18 20:33N 54°42' W 005°46'10 9.7
2014-Oct-18 19:33N 54°44' W 005°30'1111.1
2014-Oct-18 18:33N 54°35' W 005°17'1313.5
2014-Oct-18 17:33N 54°22' W 005°13'1513.9
2014-Oct-18 16:28N 54°07' W 005°14'10713.6
2014-Oct-18 08:33N 52°22' W 005°50'1413.8
2014-Oct-18 07:33N 52°09' W 005°59'1313.1
2014-Oct-18 06:33N 52°02' W 006°17'1313.5
2014-Oct-18 05:33N 51°58' W 006°38'1313.4
2014-Oct-18 04:33N 51°55' W 006°59'1313.1
2014-Oct-18 03:33N 51°51' W 007°19'1312.9
2014-Oct-18 02:33N 51°48' W 007°39'1312.6
2014-Oct-18 01:33N 51°44' W 007°59'1010.5
2014-Oct-18 00:34N 51°47' W 008°15'8 8.2
2014-Oct-17 23:33N 51°54' W 008°23'1 1.2
2014-Oct-17 22:31N 51°54' W 008°25'0 0.0
2014-Oct-17 21:31N 51°54' W 008°25'0 0.0
2014-Oct-17 20:31N 51°54' W 008°25'0 0.0
2014-Oct-17 19:31N 51°54' W 008°25'0 0.0
2014-Oct-17 18:31N 51°54' W 008°25'0 0.0
2014-Oct-17 17:31N 51°54' W 008°25'0 0.0
2014-Oct-17 16:31N 51°54' W 008°25'0 0.0
2014-Oct-17 15:31N 51°54' W 008°25'0 0.0
2014-Oct-17 14:31N 51°54' W 008°25'5 5.7
2014-Oct-17 13:33N 51°51' W 008°17'10 9.8
2014-Oct-17 12:33N 51°42' W 008°11'1313.1
2014-Oct-17 11:33N 51°33' W 007°55'1313.2
2014-Oct-17 10:33N 51°24' W 007°40'17710.9
2014-Oct-16 18:16N 49°58' W 003°36'913.1
2014-Oct-16 17:33N 49°58' W 003°21'1413.2
2014-Oct-16 16:28N 49°59' W 002°59'1212.6
2014-Oct-16 15:33N 50°02' W 002°41'12312.3
2014-Oct-16 05:33N 50°36' E 000°23'1212.3
2014-Oct-16 04:33N 50°40' E 000°41'1312.4
2014-Oct-16 03:33N 50°47' E 000°58'1412.4
2014-Oct-16 02:27N 50°57' E 001°13'1112.8
2014-Oct-16 01:33N 51°04' E 001°27'1414.2
2014-Oct-16 00:34N 51°13' E 001°44'1514.6
2014-Oct-15 23:34N 51°26' E 001°56'1413.7
2014-Oct-15 22:33N 51°38' E 002°05'1313.0
2014-Oct-15 21:32N 51°50' E 002°14'1612.4
2014-Oct-15 20:17N 52°06' E 002°15'2111.9
2014-Oct-15 18:32N 52°27' E 002°15'2412.3
2014-Oct-15 16:33N 52°51' E 002°10'1312.8
2014-Oct-15 15:33N 52°58' E 001°52'1313.3
2014-Oct-15 14:33N 53°04' E 001°32'1413.5
2014-Oct-15 13:33N 53°13' E 001°15'4113.8
2014-Oct-15 10:33N 53°48' E 000°37'1414.0
2014-Oct-15 09:33N 53°59' E 000°24'1414.0
2014-Oct-15 08:33N 54°10' E 000°09'1313.5
2014-Oct-15 07:33N 54°20' W 000°07'1313.4
2014-Oct-15 06:33N 54°30' W 000°23'1312.5
2014-Oct-15 05:33N 54°36' W 000°41'1212.3
2014-Oct-15 04:33N 54°41' W 001°01'6 0.3
2014-Oct-14 09:30N 54°37' W 001°10'0 0.0
2014-Oct-14 08:33N 54°37' W 001°10'0 0.0
2014-Oct-14 07:21N 54°37' W 001°10'0 0.0
2014-Oct-14 06:21N 54°37' W 001°10'0 0.0
2014-Oct-14 05:33N 54°37' W 001°10'0 0.0
2014-Oct-12 17:03N 54°37' W 001°10'0 0.0
2014-Oct-12 16:18N 54°37' W 001°10'0 0.0
2014-Oct-12 15:33N 54°37' W 001°10'0 0.0
2014-Oct-12 13:24N 54°37' W 001°10'0 0.0
2014-Oct-12 12:27N 54°37' W 001°10'0 0.0
2014-Oct-12 11:15N 54°37' W 001°10'0 0.0
2014-Oct-12 10:12N 54°37' W 001°10'0 0.0
2014-Oct-12 09:30N 54°37' W 001°10'0 0.0
2014-Oct-12 08:30N 54°37' W 001°10'0 0.0
2014-Oct-12 07:30N 54°37' W 001°10'0 0.0
2014-Oct-12 06:34N 54°37' W 001°10'0 0.0
2014-Oct-11 16:30N 54°37' W 001°10'0 0.0
2014-Oct-11 15:21N 54°37' W 001°10'0 0.0
2014-Oct-11 14:30N 54°37' W 001°10'0 0.0
2014-Oct-11 13:33N 54°37' W 001°10'0 0.0
2014-Oct-11 12:33N 54°37' W 001°10'0 0.0
2014-Oct-11 11:09N 54°37' W 001°10'0 0.0
2014-Oct-11 09:24N 54°37' W 001°10'0 0.0
2014-Oct-11 08:27N 54°37' W 001°10'0 0.0
2014-Oct-11 07:12N 54°37' W 001°10'0 0.0
2014-Oct-11 06:30N 54°37' W 001°10'0 0.0
2014-Oct-10 17:09N 54°37' W 001°10'0 0.0
2014-Oct-10 16:30N 54°37' W 001°10'0 0.0
2014-Oct-10 15:30N 54°37' W 001°10'0 0.0
2014-Oct-10 14:30N 54°37' W 001°10'0 0.0
2014-Oct-10 13:33N 54°37' W 001°10'0 0.0
2014-Oct-10 12:30N 54°37' W 001°10'0 0.2
2014-Oct-10 11:33N 54°38' W 001°10'4 4.2
2014-Oct-10 10:32N 54°41' W 001°05'1 1.1
2014-Oct-10 09:27N 54°40' W 001°03'0 0.0
2014-Oct-10 08:24N 54°40' W 001°03'0 0.0
2014-Oct-10 07:33N 54°40' W 001°03'0 0.0
2014-Oct-10 06:30N 54°40' W 001°03'0 0.0
2014-Oct-10 05:33N 54°40' W 001°03'0 0.0
2014-Oct-10 04:33N 54°40' W 001°03'0 0.0
2014-Oct-10 03:30N 54°40' W 001°03'0 0.0
2014-Oct-10 02:30N 54°40' W 001°03'0 0.0
2014-Oct-10 01:33N 54°40' W 001°03'0 0.0
2014-Oct-10 00:33N 54°40' W 001°03'  
Track history (hours):
 
Tides and Currents Weather Stations Pressure Air Temp Water Temp Dewpoint Dewpoint Depression Visibility Wind Speed Wind Dir Waves Ship Positions

Marianne

Last reported at 2014-Oct-19 23:33 UTC. Time now 2014-Oct-20 09:49 UTC.
Position N 55°45' W 006°57'.

Length 97 m; draft 5.5 m.

Type: Ship (hazmat cat B). MMSI: 477560836.

Date/timePositionNaut miles runAvg speedWind from/ knotsBaromVisibWave heightAir tempDewpointWater temp
2014-Oct-19 23:33N 55°45' W 006°57'1212.4
2014-Oct-19 22:33N 55°36' W 006°44'1313.2
2014-Oct-19 21:33N 55°28' W 006°24'1212.2
2014-Oct-19 20:33N 55°25' W 006°04'1111.3
2014-Oct-19 19:33N 55°16' W 005°51'1311.8
2014-Oct-19 18:29N 55°04' W 005°42'1212.4
2014-Oct-19 17:32N 54°53' W 005°36'1212.3
2014-Oct-19 16:33N 54°42' W 005°44'7 6.6
2014-Oct-19 15:26N 54°37' W 005°53'0 0.0
2014-Oct-18 21:18N 54°37' W 005°53'6 8.1
2014-Oct-18 20:33N 54°42' W 005°46'10 9.7
2014-Oct-18 19:33N 54°44' W 005°30'1111.1
2014-Oct-18 18:33N 54°35' W 005°17'1313.5
2014-Oct-18 17:33N 54°22' W 005°13'1513.9
2014-Oct-18 16:28N 54°07' W 005°14'10713.6
2014-Oct-18 08:33N 52°22' W 005°50'1413.8
2014-Oct-18 07:33N 52°09' W 005°59'1313.1
2014-Oct-18 06:33N 52°02' W 006°17'1313.5
2014-Oct-18 05:33N 51°58' W 006°38'1313.4
2014-Oct-18 04:33N 51°55' W 006°59'1313.1
2014-Oct-18 03:33N 51°51' W 007°19'1312.9
2014-Oct-18 02:33N 51°48' W 007°39'1312.6
2014-Oct-18 01:33N 51°44' W 007°59'1010.5
2014-Oct-18 00:34N 51°47' W 008°15'8 8.2
2014-Oct-17 23:33N 51°54' W 008°23'1 1.2
2014-Oct-17 22:31N 51°54' W 008°25'0 0.0
2014-Oct-17 21:31N 51°54' W 008°25'0 0.0
2014-Oct-17 20:31N 51°54' W 008°25'0 0.0
2014-Oct-17 19:31N 51°54' W 008°25'0 0.0
2014-Oct-17 18:31N 51°54' W 008°25'0 0.0
2014-Oct-17 17:31N 51°54' W 008°25'0 0.0
2014-Oct-17 16:31N 51°54' W 008°25'0 0.0
2014-Oct-17 15:31N 51°54' W 008°25'0 0.0
2014-Oct-17 14:31N 51°54' W 008°25'5 5.7
2014-Oct-17 13:33N 51°51' W 008°17'10 9.8
2014-Oct-17 12:33N 51°42' W 008°11'1313.1
2014-Oct-17 11:33N 51°33' W 007°55'1313.2
2014-Oct-17 10:33N 51°24' W 007°40'17710.9
2014-Oct-16 18:16N 49°58' W 003°36'913.1
2014-Oct-16 17:33N 49°58' W 003°21'1413.2
2014-Oct-16 16:28N 49°59' W 002°59'1212.6
2014-Oct-16 15:33N 50°02' W 002°41'12312.3
2014-Oct-16 05:33N 50°36' E 000°23'1212.3
2014-Oct-16 04:33N 50°40' E 000°41'1312.4
2014-Oct-16 03:33N 50°47' E 000°58'1412.4
2014-Oct-16 02:27N 50°57' E 001°13'1112.8
2014-Oct-16 01:33N 51°04' E 001°27'1414.2
2014-Oct-16 00:34N 51°13' E 001°44'1514.6
2014-Oct-15 23:34N 51°26' E 001°56'1413.7
2014-Oct-15 22:33N 51°38' E 002°05'1313.0
2014-Oct-15 21:32N 51°50' E 002°14'1612.4
2014-Oct-15 20:17N 52°06' E 002°15'2111.9
2014-Oct-15 18:32N 52°27' E 002°15'2412.3
2014-Oct-15 16:33N 52°51' E 002°10'1312.8
2014-Oct-15 15:33N 52°58' E 001°52'1313.3
2014-Oct-15 14:33N 53°04' E 001°32'1413.5
2014-Oct-15 13:33N 53°13' E 001°15'4113.8
2014-Oct-15 10:33N 53°48' E 000°37'1414.0
2014-Oct-15 09:33N 53°59' E 000°24'1414.0
2014-Oct-15 08:33N 54°10' E 000°09'1313.5
2014-Oct-15 07:33N 54°20' W 000°07'1313.4
2014-Oct-15 06:33N 54°30' W 000°23'1312.5
2014-Oct-15 05:33N 54°36' W 000°41'1212.3
2014-Oct-15 04:33N 54°41' W 001°01'6 0.3
2014-Oct-14 09:30N 54°37' W 001°10'0 0.0
2014-Oct-14 08:33N 54°37' W 001°10'0 0.0
2014-Oct-14 07:21N 54°37' W 001°10'0 0.0
2014-Oct-14 06:21N 54°37' W 001°10'0 0.0
2014-Oct-14 05:33N 54°37' W 001°10'0 0.0
2014-Oct-12 17:03N 54°37' W 001°10'0 0.0
2014-Oct-12 16:18N 54°37' W 001°10'0 0.0
2014-Oct-12 15:33N 54°37' W 001°10'0 0.0
2014-Oct-12 13:24N 54°37' W 001°10'0 0.0
2014-Oct-12 12:27N 54°37' W 001°10'0 0.0
2014-Oct-12 11:15N 54°37' W 001°10'0 0.0
2014-Oct-12 10:12N 54°37' W 001°10'0 0.0
2014-Oct-12 09:30N 54°37' W 001°10'0 0.0
2014-Oct-12 08:30N 54°37' W 001°10'0 0.0
2014-Oct-12 07:30N 54°37' W 001°10'0 0.0
2014-Oct-12 06:34N 54°37' W 001°10'0 0.0
2014-Oct-11 16:30N 54°37' W 001°10'0 0.0
2014-Oct-11 15:21N 54°37' W 001°10'0 0.0
2014-Oct-11 14:30N 54°37' W 001°10'0 0.0
2014-Oct-11 13:33N 54°37' W 001°10'0 0.0
2014-Oct-11 12:33N 54°37' W 001°10'0 0.0
2014-Oct-11 11:09N 54°37' W 001°10'0 0.0
2014-Oct-11 09:24N 54°37' W 001°10'0 0.0
2014-Oct-11 08:27N 54°37' W 001°10'0 0.0
2014-Oct-11 07:12N 54°37' W 001°10'0 0.0
2014-Oct-11 06:30N 54°37' W 001°10'0 0.0
2014-Oct-10 17:09N 54°37' W 001°10'0 0.0
2014-Oct-10 16:30N 54°37' W 001°10'0 0.0
2014-Oct-10 15:30N 54°37' W 001°10'0 0.0
2014-Oct-10 14:30N 54°37' W 001°10'0 0.0
2014-Oct-10 13:33N 54°37' W 001°10'0 0.0
2014-Oct-10 12:30N 54°37' W 001°10'0 0.2
2014-Oct-10 11:33N 54°38' W 001°10'4 4.2
2014-Oct-10 10:32N 54°41' W 001°05'1 1.1
2014-Oct-10 09:27N 54°40' W 001°03'0 0.0
2014-Oct-10 08:24N 54°40' W 001°03'0 0.0
2014-Oct-10 07:33N 54°40' W 001°03'0 0.0
2014-Oct-10 06:30N 54°40' W 001°03'0 0.0
2014-Oct-10 05:33N 54°40' W 001°03'0 0.0
2014-Oct-10 04:33N 54°40' W 001°03'0 0.0
2014-Oct-10 03:30N 54°40' W 001°03'0 0.0
2014-Oct-10 02:30N 54°40' W 001°03'0 0.0
2014-Oct-10 01:33N 54°40' W 001°03'0 0.0
2014-Oct-10 00:33N 54°40' W 001°03'  

Dump ship's entire track history